Terminal Aerodrome Forecast
Issued by NWS

Home | Current Version | Previous Version | Text Only | Print | Product List | Glossary On
Versions: 1 2 3 4 5 6 7 8 9 10 11 12 13 14 15 16 17 18 19 20 21 22 23 24 25 26 27 28 29 30 31 32 33 34 35 36 37 38 39 40 41 42 43 44 45 46 47 48 49
000
FTUS42 KEYW 192300
TAFMTH
TAF
KMTH 192324Z 2000/2024 VRB02KT P6SM SCT023 BKN250
     FM200900 20005KT P6SM VCTS SCT023CB SCT050 OVC250 PROB30
      2017/2021 24015G25KT 2SM +TSRA BKN023CB BKN050 OVC250
     FM202100 29005KT P6SM SCT023 SCT050 BKN250=

USA.gov is the U.S. government's official web portal to all federal, state and local government web resources and services.